HVDC transfer

From www.emi.ea.govt.nz provided by the Electricity Authority (New Zealand)
Run at: 20240507024638

Parameters
Date range,18 Nov 2019 - 18 Nov 2019
Time scale,Trading period
Show,Average flow (MW)

Period start,Period end,Trading period,Direction,Energy transfer (GWh),Peak flow (MW),Average flow (MW)
18/11/2019 00:00:00,18/11/2019 00:30:00,1,Northward at Haywards,0.190,380,380
18/11/2019 00:30:00,18/11/2019 01:00:00,2,Northward at Haywards,0.164,327,327
18/11/2019 01:00:00,18/11/2019 01:30:00,3,Northward at Haywards,0.146,292,292
18/11/2019 01:30:00,18/11/2019 02:00:00,4,Northward at Haywards,0.151,301,301
18/11/2019 02:00:00,18/11/2019 02:30:00,5,Northward at Haywards,0.144,287,287
18/11/2019 02:30:00,18/11/2019 03:00:00,6,Northward at Haywards,0.134,268,268
18/11/2019 03:00:00,18/11/2019 03:30:00,7,Northward at Haywards,0.137,273,273
18/11/2019 03:30:00,18/11/2019 04:00:00,8,Northward at Haywards,0.142,284,284
18/11/2019 04:00:00,18/11/2019 04:30:00,9,Northward at Haywards,0.158,316,316
18/11/2019 04:30:00,18/11/2019 05:00:00,10,Northward at Haywards,0.168,335,335
18/11/2019 05:00:00,18/11/2019 05:30:00,11,Northward at Haywards,0.179,357,357
18/11/2019 05:30:00,18/11/2019 06:00:00,12,Northward at Haywards,0.213,425,425
18/11/2019 06:00:00,18/11/2019 06:30:00,13,Northward at Haywards,0.256,512,512
18/11/2019 06:30:00,18/11/2019 07:00:00,14,Northward at Haywards,0.336,672,672
18/11/2019 07:00:00,18/11/2019 07:30:00,15,Northward at Haywards,0.322,644,644
18/11/2019 07:30:00,18/11/2019 08:00:00,16,Northward at Haywards,0.354,707,707
18/11/2019 08:00:00,18/11/2019 08:30:00,17,Northward at Haywards,0.383,766,766
18/11/2019 08:30:00,18/11/2019 09:00:00,18,Northward at Haywards,0.385,769,769
18/11/2019 09:00:00,18/11/2019 09:30:00,19,Northward at Haywards,0.389,777,777
18/11/2019 09:30:00,18/11/2019 10:00:00,20,Northward at Haywards,0.397,793,793
18/11/2019 10:00:00,18/11/2019 10:30:00,21,Northward at Haywards,0.389,777,777
18/11/2019 10:30:00,18/11/2019 11:00:00,22,Northward at Haywards,0.402,803,803
18/11/2019 11:00:00,18/11/2019 11:30:00,23,Northward at Haywards,0.400,799,799
18/11/2019 11:30:00,18/11/2019 12:00:00,24,Northward at Haywards,0.376,751,751
18/11/2019 12:00:00,18/11/2019 12:30:00,25,Northward at Haywards,0.241,482,482
18/11/2019 12:30:00,18/11/2019 13:00:00,26,Northward at Haywards,0.353,706,706
18/11/2019 13:00:00,18/11/2019 13:30:00,27,Northward at Haywards,0.389,778,778
18/11/2019 13:30:00,18/11/2019 14:00:00,28,Northward at Haywards,0.362,723,723
18/11/2019 14:00:00,18/11/2019 14:30:00,29,Northward at Haywards,0.404,808,808
18/11/2019 14:30:00,18/11/2019 15:00:00,30,Northward at Haywards,0.406,811,811
18/11/2019 15:00:00,18/11/2019 15:30:00,31,Northward at Haywards,0.411,821,821
18/11/2019 15:30:00,18/11/2019 16:00:00,32,Northward at Haywards,0.424,847,847
18/11/2019 16:00:00,18/11/2019 16:30:00,33,Northward at Haywards,0.431,862,862
18/11/2019 16:30:00,18/11/2019 17:00:00,34,Northward at Haywards,0.444,887,887
18/11/2019 17:00:00,18/11/2019 17:30:00,35,Northward at Haywards,0.429,857,857
18/11/2019 17:30:00,18/11/2019 18:00:00,36,Northward at Haywards,0.427,853,853
18/11/2019 18:00:00,18/11/2019 18:30:00,37,Northward at Haywards,0.413,826,826
18/11/2019 18:30:00,18/11/2019 19:00:00,38,Northward at Haywards,0.439,878,878
18/11/2019 19:00:00,18/11/2019 19:30:00,39,Northward at Haywards,0.420,839,839
18/11/2019 19:30:00,18/11/2019 20:00:00,40,Northward at Haywards,0.428,855,855
18/11/2019 20:00:00,18/11/2019 20:30:00,41,Northward at Haywards,0.432,863,863
18/11/2019 20:30:00,18/11/2019 21:00:00,42,Northward at Haywards,0.436,871,871
18/11/2019 21:00:00,18/11/2019 21:30:00,43,Northward at Haywards,0.445,889,889
18/11/2019 21:30:00,18/11/2019 22:00:00,44,Northward at Haywards,0.432,863,863
18/11/2019 22:00:00,18/11/2019 22:30:00,45,Northward at Haywards,0.417,833,833
18/11/2019 22:30:00,18/11/2019 23:00:00,46,Northward at Haywards,0.386,771,771
18/11/2019 23:00:00,18/11/2019 23:30:00,47,Northward at Haywards,0.357,713,713
18/11/2019 23:30:00,19/11/2019 00:00:00,48,Northward at Haywards,0.311,622,622
